Location: Oshawa
(43.9000°N, 78.8670°W)
Time: 05:07:37
(UTC-05:00)

PAYLOAD A - Visible Passes

Search period start: 08 February 2016 00:00
Search period end: 18 February 2016 00:00
Orbit: 692 x 832 km, 98.2° (Epoch: 07 February)

Date Brightness Start Highest point End Pass type
(mag) Time Alt. Az. Time Alt. Az. Time Alt. Az.
08 Feb 4.9 06:36:13 10° NNE 06:40:56 52° E 06:45:31 10° S visible
08 Feb 7.4 19:33:21 10° WSW 19:35:55 14° W 19:38:29 10° WNW visible
09 Feb 6.5 05:59:18 10° NE 06:03:03 23° E 06:06:44 10° SE visible
09 Feb 6.2 18:53:22 10° SSW 18:57:57 29° W 19:02:28 10° NW visible
10 Feb 4.7 18:14:55 10° S 18:20:11 63° WSW 18:25:19 10° NNW visible
11 Feb 5.5 06:22:30 10° NNE 06:26:57 38° E 06:31:18 10° SSE visible
11 Feb 7.0 19:18:23 10° SW 19:21:55 18° W 19:25:23 10° NW visible
12 Feb 7.0 05:45:58 10° NE 05:49:01 17° E 05:52:00 10° SE visible
12 Feb 5.7 18:39:08 10° SSW 18:44:01 38° W 18:48:48 10° NNW visible
13 Feb 4.4 06:46:00 10° NNE 06:50:45 65° ESE 06:55:24 10° S visible
13 Feb 7.6 19:45:24 10° W 19:45:58 10° W 19:46:30 10° W visible
14 Feb 6.1 06:08:52 10° NE 06:12:57 28° E 06:16:57 10° SSE visible
14 Feb 6.6 19:03:48 10° SW 19:07:56 23° W 19:11:58 10° NW visible
15 Feb 7.3 05:33:06 10° ENE 05:34:55 12° E 05:36:44 10° ESE visible
15 Feb 5.1 18:25:02 10° S 18:30:06 50° W 18:35:02 10° NNW visible
16 Feb 5.0 06:32:12 10° NNE 06:36:47 47° E 06:41:18 10° S visible
16 Feb 7.4 19:29:17 10° WSW 19:31:55 14° W 19:34:29 10° WNW visible
17 Feb 6.7 05:55:22 10° NE 05:58:54 21° E 06:02:25 10° SE visible
17 Feb 6.2 18:49:25 10° SSW 18:53:57 30° W 18:58:23 10° NW visible
